Wind_Speed
20 19 19 19 19 20 21 22 23 24 24 25 26 27 28 29 30 32 32 32 33 33 33 33 34 35 36 37 37 39 40 42 43 43 44 45 46 47 48 49 50 50 50 52
20 20 20 20 20 21 22 23 23 24 24 26 27 27 28 29 30 31 31 31 32 31 32 32 34 34 35 36 36 38 38 38 40 41 42 42 43 45 47 48 48 49 49 51
21 21 21 21 21 22 22 23 23 24 25 26 28 27 27 28 29 29 29 30 31 30 30 32 33 33 33 34 35 35 36 36 37 39 39 40 41 42 45 46 47 47 48 49
22 22 21 21 21 22 22 23 24 25 26 26 27 28 26 27 28 28 28 29 29 29 30 32 32 31 31 33 34 34 34 34 35 37 39 39 40 41 43 45 45 46 46 47
23 23 22 22 22 23 23 23 24 25 26 26 26 29 27 27 27 28 28 28 28 29 30 30 30 30 31 32 31 31 32 33 34 35 36 38 39 41 42 43 44 45 46 46
24 24 23 23 23 23 24 24 25 26 26 26 26 28 28 26 27 28 28 28 28 28 29 29 30 30 30 29 28 29 30 31 32 33 34 36 37 39 41 43 43 43 44 45
25 25 24 23 23 23 24 25 26 27 27 26 26 28 28 27 28 28 28 28 27 28 29 29 29 29 28 27 27 28 29 29 31 32 32 33 35 37 38 39 41 41 42 44
27 26 25 25 24 24 24 25 26 28 28 28 27 28 27 27 28 29 28 27 27 27 28 29 29 28 26 26 26 26 27 27 29 30 30 31 33 34 35 38 39 40 41 42
29 28 27 26 26 26 25 25 26 28 29 29 29 28 27 27 27 28 28 27 26 27 28 28 27 26 26 26 26 26 26 27 28 29 30 31 32 34 34 35 36 38 38 39
31 30 28 28 28 27 27 27 27 28 30 31 30 29 28 27 27 28 27 27 26 27 27 27 25 25 25 26 26 26 27 28 29 29 29 30 32 33 33 33 33 35 36 38
32 32 30 29 28 28 28 28 28 29 30 31 32 31 29 28 28 28 26 25 25 26 26 26 25 25 25 26 27 27 28 29 29 28 29 30 32 33 32 31 32 33 34 36
32 33 32 31 30 29 29 29 29 30 30 31 32 31 29 29 28 27 25 25 25 26 26 25 25 26 26 27 26 27 28 29 29 29 30 30 32 31 30 30 31 32 32 33
34 34 34 33 32 31 30 29 30 30 32 32 32 30 29 29 28 27 26 25 26 25 25 26 27 26 27 26 26 26 27 28 28 29 30 30 30 29 28 28 28 29 30 31
36 36 35 34 33 32 31 30 30 31 32 32 31 29 28 28 28 27 26 25 26 26 27 27 27 27 27 27 27 27 27 28 29 30 32 31 30 29 28 27 27 26 26 27
37 36 35 34 34 34 33 32 31 31 31 31 30 29 28 27 27 27 26 26 26 27 28 29 28 28 27 26 27 28 28 29 31 31 32 31 30 29 28 27 26 25 25 26
38 38 37 35 34 34 34 32 32 31 31 31 30 29 27 27 27 27 26 27 27 28 29 29 28 28 27 27 27 28 29 30 31 31 31 30 29 28 27 26 25 25 26 27
39 38 38 36 35 36 35 32 32 32 31 31 30 29 28 28 28 28 28 28 28 29 29 28 28 28 27 28 28 29 30 30 31 31 30 29 28 28 27 26 25 25 26 26
39 38 39 38 37 38 35 33 32 32 31 30 30 29 29 29 29 30 30 29 28 29 29 28 28 27 28 28 28 29 29 30 30 30 29 29 28 27 26 25 25 25 26 26
39 39 39 39 39 38 35 33 33 32 31 30 30 30 30 30 30 30 30 29 29 30 29 28 28 28 28 29 29 30 30 30 31 31 30 30 29 27 24 24 24 25 25 26
39 39 39 39 39 39 35 33 33 33 32 30 30 30 30 30 30 30 30 30 30 30 30 29 29 28 28 28 29 31 31 31 31 31 31 29 28 26 24 24 24 25 25 25
39 38 38 37 38 38 35 34 34 34 32 31 31 30 30 31 30 31 31 30 30 29 29 29 29 28 28 29 31 31 31 31 31 31 30 29 27 26 25 25 25 26 26 25
38 38 37 37 38 36 33 34 34 33 33 32 32 31 31 31 31 31 31 30 30 30 30 29 29 28 29 30 30 31 31 31 31 31 30 29 28 27 26 26 26 26 26 25
38 38 38 38 37 36 35 34 34 33 33 33 32 32 31 31 31 31 31 31 30 30 30 30 30 30 30 31 31 31 32 32 31 30 30 29 28 27 27 27 27 27 26 25
39 37 38 38 37 36 35 35 34 34 33 33 33 33 33 32 32 31 31 31 31 31 31 31 31 31 31 32 32 32 33 32 31 31 30 29 28 27 28 29 28 28 27 25
38 38 38 38 36 37 36 35 34 34 34 34 33 33 33 32 32 32 32 32 32 31 32 32 32 32 33 33 33 33 33 33 32 31 31 30 29 29 29 29 28 27 26 25
38 37 38 37 35 35 34 34 33 33 33 33 33 33 33 33 33 32 33 33 33 33 33 33 33 33 34 34 34 34 34 34 34 33 32 31 30 30 30 29 28 27 26 25
Wind_Direction
260 263 266 268 272 277 281 283 285 287 290 289 289 290 290 291 291 291 291 289 288 288 287 287 285 282 281 281 280 279 278 275 273 272 270 267 263 259 258 257 256 256 255 253
261 263 266 270 274 278 282 285 287 289 291 291 291 292 293 295 294 293 292 290 291 291 289 289 288 286 285 284 283 281 280 279 275 272 270 267 264 260 258 258 256 256 257 254
263 264 267 271 274 279 283 286 289 293 293 293 294 295 297 298 298 296 294 294 294 292 291 292 293 291 289 287 285 283 281 280 278 273 269 267 265 262 260 260 257 257 256 255
263 264 267 271 275 279 283 286 290 294 295 296 297 299 301 301 300 299 297 296 294 293 294 296 297 294 292 290 288 284 283 282 280 275 270 268 267 265 262 261 259 257 256 256
262 263 267 271 274 278 283 286 289 293 295 297 299 300 304 304 303 301 300 299 296 296 298 299 300 297 294 294 291 286 284 284 283 280 274 271 270 266 263 262 260 258 257 256
261 263 266 269 273 278 282 285 288 292 296 298 302 301 304 307 306 304 303 301 300 300 301 302 303 301 299 297 294 291 289 287 285 283 279 275 274 272 267 264 261 260 259 257
260 263 265 268 273 277 282 286 290 294 297 300 302 301 306 309 307 307 305 303 303 303 302 304 304 303 302 300 297 295 293 291 288 287 284 281 278 277 272 266 261 261 260 260
259 261 264 268 273 277 281 285 290 295 299 301 301 302 306 308 308 308 308 305 303 303 304 305 305 305 304 303 300 298 297 295 292 290 289 286 282 282 278 270 264 263 263 263
260 261 263 267 271 275 280 284 288 292 297 299 301 303 306 308 307 307 307 305 304 305 306 307 306 305 305 305 303 301 302 299 297 294 293 291 287 287 282 273 268 266 265 264
259 261 262 265 269 273 278 283 288 291 295 298 300 301 305 308 305 306 306 306 305 306 306 306 306 306 306 306 304 304 304 302 302 299 297 295 293 290 286 280 275 271 267 265
259 261 262 264 268 272 276 281 285 289 292 295 298 300 303 305 306 307 305 305 306 307 308 308 307 308 309 309 307 305 306 305 305 302 300 300 299 294 289 283 278 273 269 265
258 261 262 264 266 269 274 279 283 287 290 292 294 297 301 304 304 305 305 305 306 307 308 309 310 309 308 307 308 308 307 307 305 304 304 305 302 298 292 288 282 277 271 266
257 260 263 264 265 268 273 278 282 284 286 289 292 297 299 301 301 302 304 305 305 306 307 308 310 309 307 308 308 307 308 310 309 307 308 308 306 302 297 291 285 280 274 268
257 259 262 265 267 269 272 276 280 282 285 288 291 295 296 298 299 299 301 302 303 304 306 308 309 308 307 308 309 307 307 311 311 310 310 310 309 306 302 297 291 284 276 271
256 258 260 263 266 269 272 275 278 281 284 286 290 291 294 295 297 298 299 300 301 303 305 306 307 307 307 308 309 310 309 311 312 311 311 309 307 306 303 298 291 283 279 276
254 258 259 261 264 267 269 272 276 280 283 285 286 289 293 292 292 293 295 298 300 302 303 304 305 306 307 307 308 310 310 311 312 312 312 310 306 306 303 297 291 287 284 281
254 257 259 261 262 265 267 272 276 279 281 283 285 287 288 288 290 292 294 296 299 300 301 301 304 304 305 307 307 308 310 311 312 312 312 309 307 306 302 296 291 290 289 287
253 256 259 261 262 264 268 271 275 278 280 281 283 284 286 287 289 292 294 294 294 298 299 299 301 302 304 306 305 306 309 309 310 310 309 309 308 306 302 297 292 291 291 289
253 256 259 261 264 265 266 271 275 277 278 281 282 284 286 286 287 290 292 293 294 293 296 298 299 300 302 304 305 305 307 308 308 309 309 308 307 307 303 298 294 293 292 290
253 256 258 260 264 265 267 270 274 276 278 280 281 283 285 286 286 287 289 292 294 294 294 296 297 298 300 302 305 305 306 308 308 309 309 308 306 303 301 299 296 294 293 292
251 254 257 260 264 265 268 271 274 276 279 279 280 282 283 284 286 287 288 289 292 292 293 295 297 298 299 301 303 305 306 308 308 308 308 307 304 301 299 298 297 296 295 293
250 252 255 258 261 264 269 271 273 275 276 277 278 280 282 283 284 287 288 288 289 290 291 294 295 296 299 301 303 304 305 307 308 308 307 304 302 300 297 297 297 296 294 292
249 253 256 258 261 264 265 268 271 273 274 275 277 278 280 281 282 284 286 288 289 290 291 293 294 295 298 301 303 303 304 306 307 307 305 303 300 298 296 295 295 296 294 290
249 252 255 257 259 262 264 265 268 271 272 273 275 276 278 279 281 282 284 286 288 289 290 292 293 295 297 299 300 301 302 303 305 304 304 303 299 297 296 296 295 295 292 289
249 251 255 257 259 260 261 263 266 268 271 273 274 276 278 278 280 281 283 285 287 288 290 291 293 295 296 297 298 299 301 301 301 301 301 300 298 296 296 296 295 294 290 288
247 251 253 255 257 259 260 261 263 266 270 273 274 275 276 278 279 280 282 284 285 288 289 291 293 294 295 296 297 298 299 299 298 298 298 296 295 294 294 293 293 293 290 287
Height
5726 5728 5727 5727 5726 5725 5724 5723 5721 5720 5718 5715 5713 5711 5710 5707 5704 5701 5698 5695 5693 5691 5688 5686 5685 5683 5682 5680 5679 5677 5675 5674 5673 5671 5670 5670 5671 5673 5676 5679 5683 5685 5687 5691
5722 5722 5722 5721 5720 5719 5718 5717 5715 5714 5711 5709 5706 5704 5702 5699 5696 5692 5689 5686 5684 5681 5679 5677 5675 5673 5671 5669 5667 5665 5664 5662 5660 5658 5658 5658 5658 5661 5663 5666 5669 5672 5674 5677
5715 5717 5716 5715 5715 5714 5713 5711 5709 5707 5705 5703 5700 5698 5696 5692 5687 5684 5681 5678 5675 5672 5670 5668 5665 5663 5661 5659 5657 5654 5653 5651 5648 5646 5646 5646 5647 5649 5651 5654 5656 5659 5661 5664
5710 5710 5710 5710 5709 5708 5707 5705 5703 5701 5698 5696 5694 5690 5689 5684 5680 5676 5673 5670 5667 5664 5662 5659 5656 5653 5651 5649 5646 5644 5642 5640 5638 5636 5635 5636 5636 5638 5640 5641 5643 5646 5648 5651
5704 5704 5704 5704 5703 5702 5701 5699 5697 5695 5692 5690 5687 5683 5682 5677 5673 5669 5665 5662 5659 5656 5653 5650 5647 5644 5642 5639 5636 5634 5632 5630 5628 5625 5624 5624 5625 5626 5627 5628 5630 5633 5635 5638
5697 5698 5698 5698 5697 5696 5695 5694 5692 5689 5686 5684 5681 5676 5673 5670 5666 5662 5658 5655 5652 5649 5646 5643 5640 5637 5634 5631 5628 5626 5624 5621 5619 5616 5615 5614 5613 5613 5614 5616 5617 5620 5623 5626
5691 5691 5691 5691 5691 5690 5689 5688 5685 5682 5680 5678 5675 5670 5668 5664 5659 5655 5651 5648 5646 5643 5640 5637 5633 5630 5627 5624 5621 5618 5616 5613 5610 5608 5606 5604 5602 5602 5602 5603 5605 5607 5611 5614
5683 5685 5685 5685 5685 5684 5682 5681 5680 5676 5673 5671 5668 5665 5663 5658 5653 5648 5645 5642 5640 5637 5634 5631 5627 5624 5621 5618 5615 5612 5609 5606 5603 5600 5597 5595 5593 5591 5591 5591 5594 5596 5599 5602
5675 5677 5678 5678 5677 5677 5676 5675 5673 5670 5667 5664 5662 5659 5656 5653 5648 5644 5640 5637 5635 5631 5628 5625 5621 5618 5615 5613 5610 5606 5603 5600 5597 5593 5590 5587 5585 5582 5581 5581 5583 5584 5587 5589
5667 5669 5670 5670 5670 5670 5669 5668 5666 5664 5660 5657 5656 5653 5651 5648 5643 5639 5635 5632 5629 5626 5623 5619 5616 5614 5611 5608 5605 5601 5598 5594 5591 5587 5584 5580 5577 5574 5572 5572 5572 5574 5576 5578
5660 5661 5662 5663 5663 5663 5663 5662 5659 5657 5655 5652 5649 5650 5646 5642 5638 5634 5631 5628 5625 5621 5618 5615 5612 5610 5607 5603 5600 5596 5592 5588 5585 5581 5578 5574 5570 5567 5564 5563 5563 5564 5565 5567
5651 5652 5653 5655 5655 5655 5655 5654 5653 5652 5649 5646 5644 5646 5640 5637 5633 5630 5626 5624 5620 5617 5614 5611 5608 5605 5602 5598 5594 5591 5587 5583 5580 5575 5571 5567 5563 5560 5557 5555 5554 5555 5556 5558
5642 5644 5645 5646 5649 5648 5647 5647 5646 5644 5642 5640 5638 5640 5635 5632 5628 5625 5622 5619 5616 5613 5611 5608 5604 5600 5597 5593 5589 5586 5582 5579 5574 5570 5565 5561 5557 5554 5551 5549 5548 5547 5548 5550
5633 5634 5637 5638 5638 5639 5639 5640 5638 5636 5635 5634 5633 5632 5630 5626 5623 5621 5618 5615 5612 5609 5607 5604 5600 5596 5592 5589 5585 5581 5578 5574 5569 5565 5560 5556 5552 5548 5545 5543 5542 5541 5542 5543
5623 5625 5627 5628 5629 5629 5630 5631 5630 5629 5628 5627 5627 5625 5624 5621 5617 5615 5613 5610 5608 5605 5602 5599 5595 5591 5588 5584 5581 5577 5573 5569 5565 5560 5555 5551 5547 5543 5540 5538 5536 5536 5536 5537
5613 5615 5617 5620 5620 5620 5621 5623 5623 5622 5621 5620 5619 5619 5618 5614 5612 5610 5608 5605 5603 5600 5597 5593 5590 5586 5583 5580 5576 5573 5569 5565 5560 5555 5551 5546 5542 5539 5536 5533 5532 5531 5530 5531
5603 5606 5608 5610 5611 5610 5613 5617 5616 5615 5614 5613 5612 5613 5611 5608 5606 5603 5602 5600 5597 5594 5591 5588 5584 5581 5578 5575 5571 5568 5564 5560 5555 5550 5546 5542 5538 5534 5531 5529 5527 5525 5525 5524
5594 5596 5598 5600 5602 5601 5609 5608 5608 5607 5607 5606 5605 5605 5603 5601 5598 5597 5595 5593 5591 5588 5585 5582 5579 5576 5573 5569 5566 5563 5559 5555 5551 5546 5542 5537 5533 5530 5526 5524 5522 5521 5520 5519
5585 5587 5588 5590 5590 5592 5599 5600 5599 5598 5599 5599 5597 5597 5595 5593 5591 5591 5589 5586 5584 5581 5578 5576 5573 5570 5567 5564 5561 5557 5554 5550 5546 5541 5537 5532 5528 5525 5521 5519 5517 5515 5514 5512
5574 5577 5579 5580 5581 5583 5591 5591 5590 5590 5590 5591 5589 5588 5587 5585 5584 5585 5582 5580 5577 5575 5572 5569 5567 5564 5561 5558 5555 5551 5548 5545 5540 5536 5532 5527 5523 5520 5517 5514 5512 5510 5508 5507
5564 5566 5569 5570 5571 5574 5581 5581 5581 5582 5583 5581 5580 5579 5579 5577 5576 5575 5573 5572 5569 5567 5565 5563 5560 5557 5554 5551 5549 5545 5542 5538 5534 5530 5526 5522 5518 5514 5512 5509 5507 5505 5503 5501
5554 5557 5559 5561 5562 5569 5572 5571 5572 5572 5572 5571 5570 5570 5570 5569 5568 5566 5565 5564 5562 5560 5558 5556 5553 5551 5548 5545 5542 5539 5535 5532 5528 5524 5521 5517 5513 5509 5506 5504 5501 5499 5497 5495
5543 5548 5550 5553 5557 5560 5560 5561 5561 5561 5562 5562 5562 5561 5561 5560 5559 5558 5557 5556 5554 5552 5550 5548 5546 5543 5540 5538 5535 5532 5528 5525 5521 5518 5514 5511 5507 5504 5501 5498 5496 5493 5491 5489
5533 5536 5539 5542 5546 5549 5549 5550 5551 5551 5552 5552 5552 5552 5552 5551 5550 5550 5549 5547 5546 5544 5542 5540 5538 5536 5533 5530 5527 5524 5521 5517 5514 5511 5507 5504 5501 5498 5495 5492 5489 5487 5485 5483
5523 5526 5528 5531 5535 5537 5539 5540 5541 5541 5542 5542 5542 5542 5542 5541 5541 5540 5539 5538 5537 5535 5534 5532 5530 5528 5525 5522 5519 5516 5512 5509 5506 5503 5500 5497 5494 5491 5489 5486 5483 5480 5478 5476
5514 5517 5519 5522 5525 5526 5529 5530 5531 5531 5532 5533 5533 5533 5532 5532 5531 5531 5530 5529 5528 5526 5525 5523 5521 5519 5516 5514 5511 5507 5504 5500 5498 5495 5492 5489 5486 5483 5481 5478 5476 5473 5471 5470